Regional Weather Roundup
Issued by NWS Newport/Morehead, NC

Current Version | Previous Version | Graphics & Text | Print | Product List | Glossary Off
Versions: 1 2 3 4 5 6 7 8 9 10 11 12 13 14 15 16 17 18 19 20 21 22 23 24 25 26 27 28 29 30 31 32 33 34 35 36 37 38 39 40 41 42 43 44 45 46 47 48 49 50

000
ASUS42 KMHX 200122
RWRMHX
WEATHER ROUNDUP FOR EASTERN NORTH CAROLINA
NATIONAL WEATHER SERVICE NEWPORT/MOREHEAD CITY NC
900 PM EDT SAT APR 19 2014

NOTE: "FAIR" INDICATES FEW OR NO CLOUDS BELOW 12,000 FEET
WITH NO SIGNIFICANT WEATHER AND/OR OBSTRUCTIONS TO VISIBILITY

NCZ015>017-031-032-045>047-102-103-200200-
NORTH COAST

CITY           SKY/WX    TMP DP  RH WIND       PRES   REMARKS
EDENTON        CLOUDY    49  43  80 N7        30.20R
ELIZABETH CITY CLOUDY    50  43  77 N13       30.18R
KITTY HAWK     CLOUDY    49  47  92 NE8G18    30.14R
MANTEO         CLOUDY    50  47  90 NE17G24   30.14R

$$

NCZ045>047-081-094-103-104-200200-
CENTRAL COAST

CITY           SKY/WX    TMP DP  RH WIND       PRES   REMARKS
FRISCO         LGT RAIN  52  52 100 NE13G23   30.11R FOG
SWANQUARTER      N/A     50 N/A N/A N3G9      30.12R

$$

NCZ095-097-098-100-101-200200-
SOUTHERN COAST

CITY           SKY/WX    TMP DP  RH WIND       PRES   REMARKS
BEAUFORT       LGT RAIN  52  51  97 N18G30    30.11R FOG
CEDAR ISLAND     N/A     54 N/A N/A VRB17G30  30.18R
JACKSONVILLE   LGT RAIN  49  49 100 N17       30.13R
NEWPORT          N/A     50  50 100 N12         N/A
PINEY ISLAND   LGT RAIN  55  54  96 N18G25    30.13S FOG
WILMINGTON     LGT RAIN  52  49  89 N21       30.06F FOG


$$

NCZ011>013-027>030-043-044-078>080-089-090>093-098-200200-
COASTAL PLAIN

CITY           SKY/WX    TMP DP  RH WIND       PRES   REMARKS
AHOSKIE        CLOUDY    49  41  73 N3        30.24R
CLINTON        CLOUDY    49  48  96 N12       30.15F
ELIZABETHTOWN  LGT RAIN  49  48  99 NE6       30.12S
GOLDSBORO      LGT RAIN  50  45  84 N8        30.16S
GREENVILLE     CLOUDY    50  43  76 N10       30.20S
HAVELOCK       LGT RAIN  50  47  89 N15       30.14S
KENANSVILLE    CLOUDY    47  45  91 NE12G20   30.16R
KINSTON        CLOUDY    50  43  76 N9        30.18R
NEW BERN       LGT RAIN  49  46  90 N13       30.17R FOG
RICHLANDS      CLOUDY    48  48 100 N10G20    30.15R
ROANOKE RAPIDS NOT AVBL
ROCKY MOUNT    CLOUDY    51  43  74 NE8       30.20S
WASHINGTON     CLOUDY    50  45  81 N8        30.19R
WHITEVILLE     CLOUDY    50  48  91 NE12      30.09R

$$

AMZ130-135-150-152-154-156-158-170-250-252-270-ANZ085-086-088-633-658-670-200200-
MARINE OBSERVATIONS

STATION/POSITION TIME  TEMP    WIND        PRES    WAVE   SWELL
                       AIR SEA DIR/SP/G            HT/PER HT/PER
                 (UTC) (F)     (DEG/KT/KT) (MB)    (FT/S) (FT/S)
CHESAPEAKE LIGHT 0100   47      40/ 21/ 22 1023.4
BUOY 44014       0100   51 48   20/ 17/ 19 1021.2    6/11   3/11
DUCK             0100   49 49   20/ 23/ 26 1020.2
2E DUCK          0100      47                N/A     6/ 9   2/11
OREGON INLET     0100   50 51   10/ 13/ 20 1020.7
BUOY 44095       0100      48                N/A     8/ 6   2/11
HATTERAS CG      0100   54 56   20/ 11/ 21 1019.7
DIAMOND BUOY     NOT AVBL
CAPE LOOKOUT     0100   54      10/ 23/ 28 1018.9
BEAUFORT LAB     0100   52 57   20/ 15/ 24 1018.8
30 SE NEW RIVER  0100   58 67   30/ 29/ 35 1016.8    9/ 6   3/10
5 SE WRIGHTSVILL 0100   55 59   30/ 27/ 31 1016.6
FRYING PAN BUOY  0100   63 67   40/ 31/ 37 1013.4   12/ 8
BUOY 41001       NOT AVBL
BUOY 41002       NOT AVBL
BUOY 41004       NOT AVBL

$$



USA.gov is the U.S. government's official web portal to all federal, state and local government web resources and services.